| time (UTC) | temp F | wind direction | speed knots | gust knots | rain 1hr in | rain 24hr in | rain mn in | humidity % | barometer mb |
| 20260503231549 | 58 | 272 | 3.5 | 7.0 | 0.00 | 0.00 | 0.00 | 73 | 1035.9 |
| 20260503230607 | 57 | 293 | 2.6 | 3.5 | 0.00 | 0.00 | 0.00 | 74 | 1035.9 |
| 20260503225543 | 57 | 253 | 6.1 | 12.2 | 0.00 | 0.00 | 0.00 | 72 | 1036.0 |
| 20260503224542 | 56 | 280 | 6.1 | 12.2 | 0.00 | 0.00 | 0.00 | 73 | 1035.9 |
| 20260503223559 | 56 | 291 | 5.2 | 11.3 | 0.00 | 0.00 | 0.00 | 73 | 1036.0 |
| 20260503222601 | 57 | 263 | 5.2 | 9.6 | 0.00 | 0.00 | 0.00 | 71 | 1036.0 |
| 20260503221538 | 57 | 288 | 4.3 | 12.2 | 0.00 | 0.00 | 0.00 | 72 | 1035.9 |
| 20260503220530 | 58 | 339 | 1.7 | 7.0 | 0.00 | 0.00 | 0.00 | 70 | 1036.0 |
| 20260503215553 | 57 | 334 | 4.3 | 9.6 | 0.00 | 0.00 | 0.00 | 72 | 1036.0 |
| 20260503214526 | 59 | 314 | 3.5 | 9.6 | 0.00 | 0.00 | 0.00 | 71 | 1035.9 |
| 20260503213523 | 57 | 340 | 2.6 | 6.1 | 0.00 | 0.00 | 0.00 | 72 | 1035.8 |
| 20260503212520 | 57 | 341 | 1.7 | 5.2 | 0.00 | 0.00 | 0.00 | 72 | 1035.8 |
| 20260503211518 | 56 | 293 | 1.7 | 6.1 | 0.00 | 0.00 | 0.00 | 75 | 1035.8 |
| 20260503210615 | 55 | 313 | 2.6 | 6.1 | 0.00 | 0.00 | 0.00 | 77 | 1035.8 |
| 20260503205612 | 55 | 22 | 2.6 | 6.1 | 0.00 | 0.00 | 0.00 | 76 | 1035.8 |
| 20260503204611 | 55 | 293 | 2.6 | 6.1 | 0.00 | 0.00 | 0.00 | 76 | 1035.8 |
| 20260503203607 | 55 | 285 | 2.6 | 5.2 | 0.00 | 0.00 | 0.00 | 76 | 1035.7 |
| 20260503202606 | 55 | 334 | 0.9 | 3.5 | 0.00 | 0.00 | 0.00 | 77 | 1035.7 |
| 20260503201602 | 54 | 306 | 0.9 | 1.7 | 0.00 | 0.00 | 0.00 | 78 | 1035.7 |
| 20260503200600 | 54 | 18 | 0.9 | 3.5 | 0.00 | 0.00 | 0.00 | 78 | 1035.6 |
| 20260503195557 | 54 | 20 | 1.7 | 6.1 | 0.00 | 0.00 | 0.00 | 79 | 1035.5 |
| 20260503194555 | 54 | 38 | 0.9 | 3.5 | 0.00 | 0.00 | 0.00 | 79 | 1035.4 |
| 20260503193553 | 54 | 331 | 0.9 | 5.2 | 0.00 | 0.00 | 0.00 | 79 | 1035.3 |
| 20260503192554 | 54 | 17 | 1.7 | 3.5 | 0.00 | 0.00 | 0.00 | 80 | 1035.3 |
| 20260503191547 | 54 | 28 | 1.7 | 7.0 | 0.00 | 0.00 | 0.00 | 82 | 1035.2 |
| 20260503190544 | 54 | 30 | 1.7 | 3.5 | 0.00 | 0.00 | 0.00 | 82 | 1035.3 |
| 20260503185543 | 54 | 88 | 1.7 | 6.1 | 0.00 | 0.00 | 0.00 | 82 | 1035.2 |
| 20260503184539 | 54 | 65 | 1.7 | 3.5 | 0.00 | 0.00 | 0.00 | 81 | 1035.2 |
| 20260503183557 | 53 | 57 | 0.9 | 3.5 | 0.00 | 0.00 | 0.00 | 84 | 1035.2 |
| 20260503182553 | 53 | 38 | 0.9 | 5.2 | 0.00 | 0.00 | 0.00 | 84 | 1035.1 |
| 20260503181530 | 53 | 340 | 1.7 | 6.1 | 0.00 | 0.00 | 0.00 | 84 | 1035.1 |
| 20260503180528 | 53 | 290 | 2.6 | 7.8 | 0.00 | 0.00 | 0.00 | 84 | 1035.1 |
| 20260503175525 | 53 | 26 | 1.7 | 3.5 | 0.00 | 0.01 | 0.00 | 84 | 1035.1 |
| 20260503174523 | 53 | 4 | 2.6 | 9.6 | 0.00 | 0.01 | 0.00 | 83 | 1035.0 |
| 20260503173520 | 53 | 42 | 0.9 | 3.5 | 0.00 | 0.01 | 0.00 | 83 | 1035.0 |
| 20260503172522 | 53 | 75 | 1.7 | 5.2 | 0.00 | 0.01 | 0.00 | 83 | 1035.1 |
| 20260503171620 | 53 | 36 | 0.9 | 3.5 | 0.00 | 0.01 | 0.00 | 82 | 1035.1 |
| 20260503170634 | 54 | 24 | 1.7 | 3.5 | 0.00 | 0.01 | 0.00 | 81 | 1035.0 |
| 20260503150542 | 53 | 52 | 0.9 | 1.7 | 0.00 | 0.01 | 0.00 | 82 | 1035.5 |
| 20260503130611 | 44 | 23 | 0.9 | 1.7 | 0.00 | 0.01 | 0.00 | 96 | 1035.5 |
| 20260503110540 | 41 | 0.0 | 0.0 | 0.00 | 0.01 | 0.01 | 94 | 1035.3 | |
| 20260503081556 | 50 | 270 | 0.9 | 1.7 | 0.00 | 0.01 | 0.01 | 87 | 1034.6 |
| 20260503080553 | 51 | 272 | 0.9 | 5.2 | 0.00 | 0.01 | 0.01 | 86 | 1034.4 |
| 20260503072544 | 52 | 289 | 1.7 | 3.5 | 0.00 | 0.01 | 0.01 | 84 | 1034.5 |
| 20260503071545 | 52 | 316 | 0.9 | 3.5 | 0.00 | 0.01 | 0.01 | 84 | 1034.4 |
| 20260503070539 | 52 | 299 | 0.9 | 3.5 | 0.00 | 0.01 | 0.01 | 84 | 1034.4 |
| 20260503054516 | 54 | 356 | 2.6 | 7.0 | 0.00 | 0.01 | 0.01 | 80 | 1034.3 |
| 20260503053614 | 54 | 81 | 1.7 | 3.5 | 0.00 | 0.01 | 0.01 | 80 | 1034.2 |
| 20260503052623 | 55 | 260 | 2.6 | 6.1 | 0.00 | 0.01 | 0.01 | 79 | 1034.3 |
| 20260503051609 | 55 | 270 | 0.0 | 1.7 | 0.00 | 0.01 | 0.01 | 80 | 1034.2 |
| 20260503050606 | 55 | 281 | 1.7 | 3.5 | 0.00 | 0.01 | 0.01 | 78 | 1034.1 |
| 20260503045605 | 56 | 315 | 0.0 | 1.7 | 0.00 | 0.01 | 0.01 | 78 | 1034.2 |
| 20260503044623 | 56 | 270 | 0.9 | 1.7 | 0.00 | 0.01 | 0.01 | 77 | 1034.1 |
| 20260503043559 | 58 | 274 | 1.7 | 7.0 | 0.00 | 0.01 | 0.01 | 73 | 1034.0 |
| 20260503042556 | 59 | 299 | 1.7 | 5.2 | 0.00 | 0.01 | 0.01 | 71 | 1034.1 |
| 20260503041554 | 59 | 273 | 3.5 | 6.1 | 0.00 | 0.01 | 0.01 | 71 | 1034.1 |
| 20260503040612 | 60 | 266 | 1.7 | 3.5 | 0.00 | 0.01 | 0.01 | 69 | 1034.0 |
| 20260503035518 | 61 | 287 | 1.7 | 3.5 | 0.00 | 0.01 | 0.01 | 68 | 1034.0 |
| 20260503034536 | 61 | 270 | 0.9 | 1.7 | 0.00 | 0.01 | 0.01 | 69 | 1033.9 |
| 20260503033633 | 61 | 273 | 2.6 | 7.0 | 0.00 | 0.01 | 0.01 | 70 | 1034.0 |
| 20260503032611 | 60 | 271 | 3.5 | 6.1 | 0.00 | 0.01 | 0.01 | 70 | 1034.0 |
| 20260503031608 | 61 | 261 | 0.9 | 5.2 | 0.00 | 0.01 | 0.01 | 70 | 1034.1 |
| 20260503030610 | 60 | 268 | 3.5 | 7.0 | 0.00 | 0.01 | 0.01 | 70 | 1034.0 |
| 20260503025603 | 61 | 257 | 3.5 | 6.1 | 0.00 | 0.01 | 0.01 | 69 | 1034.1 |
| 20260503024620 | 61 | 258 | 2.6 | 6.1 | 0.00 | 0.01 | 0.01 | 68 | 1034.0 |
| 20260503023618 | 60 | 287 | 3.5 | 7.8 | 0.00 | 0.01 | 0.01 | 69 | 1034.1 |
| 20260503022555 | 60 | 279 | 3.5 | 6.1 | 0.00 | 0.01 | 0.01 | 71 | 1034.1 |
| 20260503021552 | 61 | 262 | 2.6 | 6.1 | 0.00 | 0.01 | 0.01 | 68 | 1034.2 |
| 20260503020549 | 62 | 329 | 1.7 | 6.1 | 0.00 | 0.01 | 0.01 | 69 | 1034.3 |
| 20260503015549 | 61 | 250 | 2.6 | 6.1 | 0.00 | 0.01 | 0.01 | 69 | 1034.2 |
| 20260503014545 | 60 | 284 | 4.3 | 7.8 | 0.00 | 0.01 | 0.01 | 71 | 1034.2 |
| 20260503013542 | 60 | 266 | 4.3 | 9.6 | 0.00 | 0.01 | 0.01 | 73 | 1034.2 |
| 20260503012539 | 60 | 233 | 3.5 | 9.6 | 0.00 | 0.01 | 0.01 | 72 | 1034.4 |
| 20260503011537 | 60 | 240 | 3.5 | 7.0 | 0.00 | 0.01 | 0.01 | 73 | 1034.6 |
| 20260503010534 | 60 | 276 | 3.5 | 7.8 | 0.00 | 0.01 | 0.01 | 73 | 1034.5 |
| 20260503005531 | 60 | 253 | 1.7 | 3.5 | 0.00 | 0.01 | 0.01 | 72 | 1034.7 |
| 20260503004528 | 60 | 266 | 3.5 | 6.1 | 0.00 | 0.01 | 0.01 | 73 | 1034.7 |
| 20260503003546 | 62 | 331 | 0.9 | 3.5 | 0.00 | 0.01 | 0.01 | 72 | 1034.9 |
| 20260503002528 | 59 | 68 | 0.9 | 1.7 | 0.00 | 0.01 | 0.01 | 76 | 1035.1 |
| 20260503001520 | 58 | 68 | 0.0 | 1.7 | 0.00 | 0.01 | 0.01 | 79 | 1035.3 |
| 20260503000518 | 57 | 50 | 0.9 | 3.5 | 0.00 | 0.01 | 0.01 | 82 | 1035.4 |
| 20260502235615 | 56 | 45 | 0.9 | 1.7 | 0.00 | 0.01 | 0.01 | 82 | 1035.5 |
| 20260502234613 | 56 | 41 | 0.9 | 1.7 | 0.00 | 0.01 | 0.01 | 83 | 1035.7 |
| 20260502233610 | 55 | 45 | 0.9 | 1.7 | 0.00 | 0.01 | 0.01 | 83 | 1035.8 |
| 20260502232628 | 53 | 23 | 0.0 | 1.7 | 0.00 | 0.01 | 0.01 | 87 | 1035.9 |